Вернуться в каталог

STARLINK-2436

АктивенСвязьVLEO
NORAD 48101·PAYLOAD·🇺🇸 United States

Запущен Apr 7, 2021 с Cape Canaveral Space Force Station

Loading…

Ближайшие Пролёты (ближайшие 24 часа)

TLE

СвежийSource: CelesTrak SupGP

Эпоха: Sep 14, 2026, 20:38 UTC

1 48101C 21027K   26257.86020833 -.00015527  00000+0 -49919-3 0  2571
2 48101  53.1589 354.7008 0001034  81.2676 100.6673 15.31717036    10

Отслеживайте STARLINK-2436 в реальном времени с AllMySat

Download on the App Store